Location: Home
(42.5358°N, 72.7383°W)
Time: 12:31:02
(UTC-05:00)

A-11 Canister half - Pass Details

Date: 08 December 2021
Orbit: 1516 x 1684 km, 47.2° (Epoch: 26 January)

Event Time Altitude Azimuth Distance (km) Brightness Sun altitude
Rises 10:48:27 0° 293° (WNW) 4,851 11.3 23.5°
Reaches altitude 10° 10:51:32 10° 293° (WNW) 3,884 10.9 23.6°
Maximum altitude 11:01:34 85° 208° (SSW) 1,682 9.7 24.0°
Drops below altitude 10° 11:11:45 10° 121° (ESE) 3,942 11.8 24.3°
Sets 11:14:55 0° 121° (ESE) 4,927 12.2 24.4°
